OBJECT B, 60746

Orbit data source: Space-Track

You're viewing an Uncataloged Satellite

Recently launched and/or uncataloged satellites may have evolving metadata. Metadata may include but not limited to: Owner, Maufacturer, Bus, Motor, and Mission.

OBJECT B, 60746 is a satellite owned by Yunyao yuhang (CN) in SSO that was launched on Thu, 29 Aug 2024 UTC via a GUSHENXING 1 launch vehicle from the Yellow Sea Launch Area, China (YSLA). Unknown objects in Earth's orbit typically refer to objects detected orbiting the Earth but have not yet been identified or cataloged. These objects could be anything from previously untracked satellites, spent rocket stages, debris from satellite collisions, or even natural meteoroids temporarily captured by Earth's gravity.

Loading next visibility...
Identifier
60746, 2024-153B
Orbit
SSO
Country
Flag of CNCN / PRC
Related business
None
Manufacturer
Changguang WJ
Mission
Operational Commercial Weather
Bus & Motor
YY-1, Unknown motor
Mass
~50 kg wet, ~50 kg dry
Launch date (UTC)
2024-08-29 (1 year ago)
Launch vehicle
GUSHENXING 1
Launch site
Yellow Sea Launch Area, China (YSLA)
Object type
Unknown
Shape & HBR
Box + 1 Pan, 2.5 m
Radar Cross Section
5.339 m², Medium (>0.1 m² and < 1m²)

Expand to show TLE details & history
Last TLE update: 16 hours ago

TLE from 16 hours ago
0 OBJECT B
1 60746U 24153B   25242.32721875  .00017714  00000-0  75148-3 0  9996
2 60746  97.6470   8.4566 0013438 103.9637 256.3094 15.23090182 55522
Epoch: 2025-08-30T07:51Z
TLE epoch observation values (Epoch: 2025-08-30T07:51:11.7Z)
Latitude
-0.00003°
Longitude
-88.10525°
Altitude
501.812 km
Speed
7.612 km/s
True Right ascension
00h 33m 49s
True Declination
0° 00' 00"
Sunlit
Object was in full shadow at epoch
Visualization orbit readout
Latitude
Unknown
Longitude
Unknown
Altitude
Unknown
Speed
Unknown
Apparent Right ascension
Unknown
Apparent Declination
Unknown
Sunlit
N/A
Visualization observer readout
Local Sidereal Time
15:34:28
Azimuth
Unknown
Elevation
Unknown
Doppler factor
Unknown
Orbital elements
Apogee altitude
502.733 km
Perigee altitude
484.264 km
Semi-major axis
6,871.635 km
Eccentricity
0.00134
Inclination
97.647°
RAAN
8.4566°
Arg. of periapsis
103.9637°
True anomaly
256.15985°
Mean anomaly
256.3094°
Eccentric anomaly
256.23462°
Mean motion
3.81025 °/min
Orbital period
94.48 mins
BSTAR
0.00075148
Loading maneuver chart data...
Computing Atmospheric mass density...
Loading historical data...
Loading historical data...
Loading historical data...
Loading historical data...
Loading historical data...
Loading historical data...
Loading historical data...

Documentation

Showing up to 5 results
|